ASX707 KLAS-KSAN

Flight info

Callsign ASX707
Flight time 0h 52m
Altitude 24000
Route RADYR2 LVELL LUCKI1
Aircraft SF50/L-SDGRWY/L

Departure

Time 2026-05-06 19:38
Airport Harry Reid International Airport (KLAS)

Arrival

Time 2026-05-06 20:30
Airport San Diego International Airport (KSAN)
Time Latitude Longitude Altitude Speed Heading
2026-05-06 19:24 36.08256 -115.12937 2162 ft 0 kts 90°
2026-05-06 19:29 36.08256 -115.12945 2163 ft 2 kts 90°
2026-05-06 19:29 36.08256 -115.12965 2163 ft 2 kts 90°
2026-05-06 19:29 36.08256 -115.12985 2165 ft 2 kts 97°
2026-05-06 19:30 36.08264 -115.13002 2159 ft 2 kts 143°
2026-05-06 19:30 36.08277 -115.13005 2165 ft 0 kts 181°
2026-05-06 19:31 36.08255 -115.13004 2165 ft 12 kts 181°
2026-05-06 19:32 36.08171 -115.13004 2165 ft 0 kts 179°
2026-05-06 19:35 36.08152 -115.13004 2165 ft 12 kts 179°
2026-05-06 19:35 36.08008 -115.13004 2165 ft 24 kts 180°
2026-05-06 19:35 36.07900 -115.13008 2182 ft 12 kts 193°
2026-05-06 19:36 36.07798 -115.13023 2182 ft 18 kts 180°
2026-05-06 19:36 36.07755 -115.12893 2182 ft 21 kts 89°
2026-05-06 19:36 36.07755 -115.12702 2181 ft 22 kts 90°
2026-05-06 19:36 36.07716 -115.12597 2182 ft 14 kts 167°
2026-05-06 19:37 36.07641 -115.12631 2183 ft 9 kts 266°
2026-05-06 19:37 36.07641 -115.12686 2183 ft 4 kts 268°
2026-05-06 19:37 36.07639 -115.12745 2183 ft 22 kts 267°
2026-05-06 19:37 36.07641 -115.13177 2184 ft 78 kts 270°
2026-05-06 19:38 36.07641 -115.14044 2251 ft 117 kts 270°
2026-05-06 19:38 36.07648 -115.15138 2554 ft 138 kts 272°
2026-05-06 19:38 36.07676 -115.16339 3138 ft 142 kts 270°
2026-05-06 19:38 36.07627 -115.17602 3606 ft 152 kts 276°
2026-05-06 19:39 36.07821 -115.18902 4096 ft 157 kts 273°
2026-05-06 19:39 36.07687 -115.20268 4592 ft 163 kts 258°
2026-05-06 19:39 36.07456 -115.21689 5041 ft 174 kts 260°
2026-05-06 19:39 36.07252 -115.23204 5493 ft 182 kts 262°
2026-05-06 19:40 36.06941 -115.24739 5936 ft 189 kts 245°
2026-05-06 19:40 36.06108 -115.26017 6390 ft 196 kts 220°
2026-05-06 19:40 36.04891 -115.26801 6827 ft 200 kts 200°
2026-05-06 19:40 36.03569 -115.27389 7237 ft 204 kts 201°
2026-05-06 19:41 36.02233 -115.28012 7605 ft 212 kts 201°
2026-05-06 19:41 36.00825 -115.28665 7989 ft 222 kts 201°
2026-05-06 19:41 35.99346 -115.29342 8368 ft 231 kts 199°
2026-05-06 19:41 35.97747 -115.29775 8746 ft 240 kts 190°
2026-05-06 19:42 35.96069 -115.30158 9135 ft 251 kts 191°
2026-05-06 19:42 35.94334 -115.30593 9572 ft 258 kts 192°
2026-05-06 19:42 35.92550 -115.31044 10037 ft 264 kts 192°
2026-05-06 19:42 35.90732 -115.31487 10457 ft 269 kts 191°
2026-05-06 19:43 35.88886 -115.31937 10886 ft 272 kts 191°
2026-05-06 19:43 35.87017 -115.32397 11320 ft 275 kts 191°
2026-05-06 19:43 35.85139 -115.32860 11762 ft 276 kts 190°
2026-05-06 19:43 35.83248 -115.33321 12211 ft 277 kts 190°
2026-05-06 19:44 35.81359 -115.33783 12664 ft 277 kts 190°
2026-05-06 19:44 35.79465 -115.34248 13126 ft 277 kts 189°
2026-05-06 19:44 35.77576 -115.34710 13590 ft 277 kts 189°
2026-05-06 19:44 35.75690 -115.35172 14043 ft 276 kts 189°
2026-05-06 19:45 35.73808 -115.35633 14459 ft 275 kts 189°
2026-05-06 19:45 35.71934 -115.36091 14885 ft 274 kts 189°
2026-05-06 19:45 35.70072 -115.36547 15308 ft 272 kts 189°
2026-05-06 19:45 35.68252 -115.36992 15732 ft 269 kts 189°
2026-05-06 19:46 35.66425 -115.37440 16183 ft 266 kts 189°
2026-05-06 19:46 35.64618 -115.37883 16624 ft 263 kts 189°
2026-05-06 19:46 35.62824 -115.38320 17080 ft 262 kts 189°
2026-05-06 19:46 35.61041 -115.38726 17498 ft 260 kts 184°
2026-05-06 19:47 35.59250 -115.38667 17890 ft 257 kts 172°
2026-05-06 19:47 35.57459 -115.38523 18290 ft 258 kts 174°
2026-05-06 19:47 35.55661 -115.38419 18648 ft 259 kts 174°
2026-05-06 19:47 35.53862 -115.38295 18995 ft 259 kts 173°
2026-05-06 19:48 35.52065 -115.38160 19346 ft 259 kts 173°
2026-05-06 19:48 35.50268 -115.38032 19696 ft 258 kts 173°
2026-05-06 19:48 35.48473 -115.37904 20057 ft 258 kts 173°
2026-05-06 19:48 35.46678 -115.37776 20420 ft 258 kts 173°
2026-05-06 19:49 35.44884 -115.37649 20786 ft 258 kts 173°
2026-05-06 19:49 35.43094 -115.37522 21157 ft 257 kts 173°
2026-05-06 19:49 35.41312 -115.37394 21534 ft 256 kts 172°
2026-05-06 19:49 35.39536 -115.37268 21913 ft 255 kts 172°
2026-05-06 19:50 35.37790 -115.37144 22294 ft 254 kts 172°
2026-05-06 19:50 35.36031 -115.37019 22684 ft 252 kts 172°
2026-05-06 19:50 35.34286 -115.36896 23079 ft 250 kts 172°
2026-05-06 19:50 35.32550 -115.36774 23477 ft 249 kts 172°
2026-05-06 19:51 35.30829 -115.36653 23840 ft 246 kts 172°
2026-05-06 19:51 35.29118 -115.36532 24077 ft 250 kts 172°
2026-05-06 19:51 35.27330 -115.36400 24083 ft 264 kts 172°
2026-05-06 19:51 35.25448 -115.36269 24089 ft 277 kts 172°
2026-05-06 19:52 35.23488 -115.36134 24091 ft 287 kts 173°
2026-05-06 19:52 35.21459 -115.35990 24087 ft 296 kts 173°
2026-05-06 19:52 35.19377 -115.35844 24086 ft 303 kts 173°
2026-05-06 19:52 35.17252 -115.35695 24083 ft 309 kts 173°
2026-05-06 19:53 35.15086 -115.35544 24081 ft 313 kts 173°
2026-05-06 19:53 35.12921 -115.35392 24081 ft 317 kts 173°
2026-05-06 19:53 35.10702 -115.35235 24075 ft 321 kts 173°
2026-05-06 19:53 35.08463 -115.35080 24076 ft 324 kts 173°
2026-05-06 19:54 35.06198 -115.34922 24073 ft 328 kts 173°
2026-05-06 19:54 35.03912 -115.34762 24074 ft 330 kts 173°
2026-05-06 19:54 35.01609 -115.34602 24071 ft 332 kts 173°
2026-05-06 19:54 34.99290 -115.34440 24071 ft 335 kts 173°
2026-05-06 19:55 34.96958 -115.34277 24071 ft 337 kts 173°
2026-05-06 19:55 34.94612 -115.34114 24066 ft 339 kts 173°
2026-05-06 19:55 34.92252 -115.33951 24066 ft 340 kts 173°
2026-05-06 19:55 34.89879 -115.33785 24061 ft 342 kts 173°
2026-05-06 19:56 34.87499 -115.33620 24059 ft 343 kts 173°
2026-05-06 19:56 34.85108 -115.33454 24057 ft 345 kts 173°
2026-05-06 19:56 34.82709 -115.33288 24057 ft 346 kts 173°
2026-05-06 19:56 34.80306 -115.33127 24055 ft 346 kts 174°
2026-05-06 19:57 34.77887 -115.33353 24045 ft 352 kts 188°
2026-05-06 19:57 34.75534 -115.34201 24036 ft 354 kts 198°
2026-05-06 19:57 34.73223 -115.35237 24035 ft 354 kts 198°
2026-05-06 19:57 34.70898 -115.36253 24038 ft 355 kts 198°
2026-05-06 19:58 34.68573 -115.37261 24036 ft 355 kts 198°
2026-05-06 19:58 34.66276 -115.38268 24033 ft 355 kts 198°
2026-05-06 19:58 34.63965 -115.39285 24036 ft 350 kts 198°
2026-05-06 19:58 34.61680 -115.40283 24030 ft 348 kts 198°
2026-05-06 19:59 34.59409 -115.41274 24026 ft 345 kts 198°
2026-05-06 19:59 34.57155 -115.42259 24026 ft 343 kts 198°
2026-05-06 19:59 34.54922 -115.43235 24027 ft 340 kts 198°
2026-05-06 19:59 34.52712 -115.44199 24026 ft 337 kts 198°
2026-05-06 20:00 34.50515 -115.45157 24025 ft 334 kts 198°
2026-05-06 20:00 34.48335 -115.46107 24027 ft 332 kts 198°
2026-05-06 20:00 34.46168 -115.47052 24028 ft 329 kts 198°
2026-05-06 20:00 34.44015 -115.47988 24026 ft 327 kts 198°
2026-05-06 20:01 34.41878 -115.48917 24033 ft 326 kts 198°
2026-05-06 20:01 34.39751 -115.49842 24031 ft 324 kts 198°
2026-05-06 20:01 34.37633 -115.50762 24034 ft 323 kts 197°
2026-05-06 20:01 34.35522 -115.51678 24038 ft 322 kts 197°
2026-05-06 20:02 34.34125 -115.52284 24037 ft 322 kts 197°
2026-05-06 20:02 34.32063 -115.53326 24031 ft 322 kts 208°
2026-05-06 20:02 34.30169 -115.54757 24041 ft 321 kts 211°
2026-05-06 20:02 34.28264 -115.56167 24041 ft 321 kts 210°
2026-05-06 20:03 34.25734 -115.58004 24046 ft 320 kts 210°
2026-05-06 20:03 34.24447 -115.58955 24043 ft 320 kts 210°
2026-05-06 20:03 34.22550 -115.60364 24050 ft 320 kts 210°
2026-05-06 20:03 34.19955 -115.62011 24045 ft 317 kts 199°
2026-05-06 20:04 34.18555 -115.62641 24048 ft 317 kts 198°
2026-05-06 20:04 34.16495 -115.63609 24046 ft 317 kts 199°
2026-05-06 20:04 34.14443 -115.64600 24052 ft 317 kts 199°
2026-05-06 20:04 34.12415 -115.65562 24056 ft 317 kts 199°
2026-05-06 20:05 34.10356 -115.66526 24056 ft 317 kts 199°
2026-05-06 20:05 34.08296 -115.67497 24058 ft 320 kts 199°
2026-05-06 20:05 34.06210 -115.68483 24063 ft 324 kts 199°
2026-05-06 20:05 34.04099 -115.69480 24057 ft 327 kts 199°
2026-05-06 20:06 34.01968 -115.70484 24066 ft 331 kts 199°
2026-05-06 20:06 33.99811 -115.71500 24063 ft 334 kts 199°
2026-05-06 20:06 33.97636 -115.72525 24068 ft 337 kts 199°
2026-05-06 20:06 33.95446 -115.73555 24070 ft 339 kts 199°
2026-05-06 20:07 33.93238 -115.74594 24070 ft 342 kts 199°
2026-05-06 20:07 33.91019 -115.75640 24067 ft 344 kts 199°
2026-05-06 20:07 33.88795 -115.76738 24067 ft 346 kts 200°
2026-05-06 20:07 33.86566 -115.77856 24067 ft 348 kts 200°
2026-05-06 20:08 33.84314 -115.78957 24065 ft 350 kts 200°
2026-05-06 20:08 33.82046 -115.80057 24065 ft 352 kts 200°
2026-05-06 20:08 33.79771 -115.81173 24059 ft 354 kts 200°
2026-05-06 20:08 33.77488 -115.82294 24057 ft 355 kts 200°
2026-05-06 20:09 33.75222 -115.83389 24053 ft 356 kts 199°
2026-05-06 20:09 33.72903 -115.84455 24048 ft 357 kts 198°
2026-05-06 20:09 33.70576 -115.85525 24047 ft 358 kts 199°
2026-05-06 20:09 33.68255 -115.86620 24046 ft 358 kts 199°
2026-05-06 20:10 33.65934 -115.87717 24041 ft 359 kts 199°
2026-05-06 20:10 33.63603 -115.88802 24040 ft 359 kts 199°
2026-05-06 20:10 33.61269 -115.89887 24035 ft 360 kts 199°
2026-05-06 20:10 33.58932 -115.90980 24039 ft 360 kts 199°
2026-05-06 20:11 33.56598 -115.92071 24039 ft 360 kts 199°
2026-05-06 20:11 33.54262 -115.93179 24036 ft 360 kts 201°
2026-05-06 20:11 33.52101 -115.94713 24023 ft 363 kts 216°
2026-05-06 20:11 33.50246 -115.96766 24016 ft 364 kts 229°
2026-05-06 20:12 33.48745 -115.99202 24019 ft 363 kts 237°
2026-05-06 20:12 33.47336 -116.01657 24024 ft 363 kts 236°
2026-05-06 20:12 33.45890 -116.04140 24022 ft 363 kts 236°
2026-05-06 20:12 33.44443 -116.06621 24024 ft 364 kts 236°
2026-05-06 20:13 33.42999 -116.09112 24023 ft 364 kts 236°
2026-05-06 20:13 33.41552 -116.11607 23984 ft 366 kts 236°
2026-05-06 20:13 33.40076 -116.14148 23592 ft 378 kts 236°
2026-05-06 20:13 33.38551 -116.16765 23052 ft 389 kts 236°
2026-05-06 20:14 33.36993 -116.19440 22523 ft 395 kts 236°
2026-05-06 20:14 33.35397 -116.22146 22005 ft 399 kts 234°
2026-05-06 20:14 33.33479 -116.24554 21477 ft 403 kts 221°
2026-05-06 20:14 33.31188 -116.26486 20949 ft 404 kts 209°
2026-05-06 20:15 33.28676 -116.27984 20425 ft 404 kts 204°
2026-05-06 20:15 33.26145 -116.29451 19890 ft 404 kts 205°
2026-05-06 20:15 33.23624 -116.30937 19364 ft 404 kts 205°
2026-05-06 20:15 33.21108 -116.32420 18837 ft 402 kts 205°
2026-05-06 20:16 33.18599 -116.33884 18294 ft 401 kts 205°
2026-05-06 20:16 33.16101 -116.35340 17739 ft 398 kts 205°
2026-05-06 20:16 33.13759 -116.36714 17244 ft 353 kts 205°
2026-05-06 20:16 33.11579 -116.37991 16779 ft 339 kts 204°
2026-05-06 20:17 33.09489 -116.39205 16352 ft 331 kts 205°
2026-05-06 20:17 33.07469 -116.40382 15937 ft 324 kts 205°
2026-05-06 20:17 33.05458 -116.41558 15509 ft 320 kts 205°
2026-05-06 20:17 33.03466 -116.42718 15092 ft 317 kts 205°
2026-05-06 20:18 33.01486 -116.43872 14681 ft 316 kts 205°
2026-05-06 20:18 32.99649 -116.45306 14256 ft 316 kts 220°
2026-05-06 20:18 32.97988 -116.47029 13842 ft 317 kts 221°
2026-05-06 20:18 32.96304 -116.48726 13403 ft 317 kts 220°
2026-05-06 20:19 32.94613 -116.50411 12979 ft 317 kts 220°
2026-05-06 20:19 32.92939 -116.52100 12567 ft 315 kts 221°
2026-05-06 20:19 32.91273 -116.53790 12151 ft 314 kts 221°
2026-05-06 20:19 32.89607 -116.55470 11741 ft 313 kts 221°
2026-05-06 20:20 32.87945 -116.57139 11334 ft 312 kts 220°
2026-05-06 20:20 32.86291 -116.58804 10918 ft 311 kts 221°
2026-05-06 20:20 32.84648 -116.60461 10517 ft 307 kts 220°
2026-05-06 20:20 32.83024 -116.62100 10031 ft 305 kts 220°
2026-05-06 20:21 32.81411 -116.63723 9586 ft 302 kts 220°
2026-05-06 20:21 32.79823 -116.65320 9187 ft 295 kts 220°
2026-05-06 20:21 32.78274 -116.66885 8801 ft 289 kts 221°
2026-05-06 20:21 32.76977 -116.68678 8417 ft 285 kts 237°
2026-05-06 20:22 32.76009 -116.70713 8053 ft 282 kts 242°
2026-05-06 20:22 32.75055 -116.72745 7677 ft 281 kts 241°
2026-05-06 20:22 32.74093 -116.74760 7309 ft 280 kts 241°
2026-05-06 20:22 32.73135 -116.76770 6942 ft 279 kts 241°
2026-05-06 20:23 32.72186 -116.78777 6576 ft 278 kts 241°
2026-05-06 20:23 32.71254 -116.80747 6202 ft 276 kts 242°
2026-05-06 20:23 32.70438 -116.82773 6014 ft 266 kts 251°
2026-05-06 20:23 32.69825 -116.84819 5828 ft 262 kts 251°
2026-05-06 20:24 32.69187 -116.86845 5523 ft 262 kts 250°
2026-05-06 20:24 32.68568 -116.88883 5186 ft 262 kts 252°
2026-05-06 20:24 32.67976 -116.90926 4844 ft 262 kts 251°
2026-05-06 20:24 32.67513 -116.92994 4485 ft 259 kts 265°
2026-05-06 20:25 32.67597 -116.94994 4166 ft 229 kts 281°
2026-05-06 20:25 32.67969 -116.96719 4004 ft 200 kts 288°
2026-05-06 20:25 32.68338 -116.98197 3996 ft 174 kts 288°
2026-05-06 20:25 32.68648 -116.99533 3997 ft 167 kts 288°
2026-05-06 20:26 32.68976 -117.00834 3998 ft 163 kts 289°
2026-05-06 20:26 32.69275 -117.02117 3995 ft 160 kts 288°
2026-05-06 20:26 32.69598 -117.03416 3779 ft 170 kts 290°
2026-05-06 20:26 32.69930 -117.04794 3370 ft 174 kts 287°
2026-05-06 20:27 32.70260 -117.06171 2931 ft 172 kts 288°
2026-05-06 20:27 32.70578 -117.07480 2703 ft 152 kts 288°
2026-05-06 20:27 32.70848 -117.08615 2495 ft 135 kts 288°
2026-05-06 20:27 32.71098 -117.09640 2273 ft 124 kts 287°
2026-05-06 20:28 32.71328 -117.10587 2113 ft 114 kts 287°
2026-05-06 20:28 32.71549 -117.11499 1821 ft 117 kts 285°
2026-05-06 20:28 32.71767 -117.12429 1513 ft 116 kts 285°
2026-05-06 20:28 32.71987 -117.13306 1325 ft 106 kts 284°
2026-05-06 20:29 32.72170 -117.14102 1144 ft 98 kts 283°
2026-05-06 20:29 32.72349 -117.14906 963 ft 104 kts 283°
2026-05-06 20:29 32.72554 -117.15744 655 ft 105 kts 288°
2026-05-06 20:29 32.72762 -117.16545 414 ft 98 kts 285°
2026-05-06 20:30 32.72955 -117.17310 224 ft 97 kts 282°
2026-05-06 20:30 32.73287 -117.18680 15 ft 62 kts 286°
2026-05-06 20:30 32.73367 -117.19009 16 ft 23 kts 288°
2026-05-06 20:31 32.73436 -117.19091 14 ft 13 kts 11°
2026-05-06 20:31 32.73481 -117.19028 12 ft 10 kts 92°
2026-05-06 20:31 32.73460 -117.18923 12 ft 17 kts 107°
2026-05-06 20:31 32.73419 -117.18752 12 ft 24 kts 105°
2026-05-06 20:32 32.73377 -117.18580 15 ft 19 kts 107°
2026-05-06 20:32 32.73344 -117.18443 16 ft 24 kts 106°
2026-05-06 20:32 32.73297 -117.18252 14 ft 22 kts 105°
2026-05-06 20:32 32.73259 -117.18093 14 ft 18 kts 106°
2026-05-06 20:33 32.73239 -117.17984 13 ft 5 kts 34°
2026-05-06 20:33 32.73282 -117.17972 15 ft 15 kts 15°
2026-05-06 20:33 32.73392 -117.17934 14 ft 16 kts 18°
2026-05-06 20:33 32.73410 -117.17889 14 ft 0 kts 105°